This is the latest recevied weather packets stored in our database for station/object N5SRF. If no packets are shown the sender has not sent any weather packets the latest 10 day(s).
| Time | Temp. | Humidity | Pressure | Rain* | Wind** | Luminosity | Snow |
|---|---|---|---|---|---|---|---|
| 1787839761 | 27.78° C | 94% | 1018.9 hPa | 0 mm | - | 302 W/m² | - |
| 1787839455 | 27.22° C | 96% | 1018.8 hPa | 0 mm | - | 292 W/m² | - |
| 1787839154 | 26.67° C | 97% | 1018.9 hPa | 0 mm | - | 255 W/m² | - |
| 1787838853 | 26.11° C | 99% | 1018.8 hPa | 0 mm | - | 113 W/m² | - |
| 1787838548 | 26.11° C | 99% | 1018.9 hPa | 0 mm | - | 102 W/m² | - |
| 1787838247 | 25.56° C | 99% | 1019 hPa | 0 mm | - | 93 W/m² | - |
| 1787837946 | 25.56° C | 99% | 1018.7 hPa | 0 mm | - | 78 W/m² | - |
| 1787837645 | 25.56° C | 99% | 1018.6 hPa | 0 mm | - | 72 W/m² | - |
| 1787837340 | 25.56° C | 99% | 1018.6 hPa | 0 mm | - | 82 W/m² | - |
| 1787837036 | 25.56° C | 99% | 1018.5 hPa | 0 mm | - | 70 W/m² | - |
| 1787836735 | 25.56° C | 99% | 1018.9 hPa | 0 mm | - | 53 W/m² | - |
| 1787836430 | 25° C | 99% | 1018.9 hPa | 0 mm | - | 39 W/m² | - |
| 1787836125 | 25° C | 99% | 1018.8 hPa | 0 mm | - | 32 W/m² | - |
| 1787835821 | 25° C | 99% | 1019.1 hPa | 0 mm | - | 30 W/m² | - |
| 1787835520 | 25° C | 99% | 1018.9 hPa | 0 mm | - | 30 W/m² | - |
| 1787835216 | 25° C | 99% | 1018.9 hPa | 0 mm | - | 29 W/m² | - |
| 1787834915 | 25° C | 99% | 1018.7 hPa | 0 mm | - | 29 W/m² | - |
| 1787834615 | 25° C | 99% | 1018.9 hPa | 0 mm | - | 33 W/m² | - |
| 1787834310 | 25° C | 99% | 1018.9 hPa | 0 mm | - | 22 W/m² | - |
| 1787834006 | 25° C | 99% | 1018.9 hPa | 0 mm | - | 15 W/m² | - |
| 1787833701 | 25° C | 99% | 1019 hPa | 0 mm | - | 10 W/m² | - |
| 1787833396 | 25° C | 99% | 1018.7 hPa | 0 mm | - | 5 W/m² | - |
| 1787833091 | 25° C | 99% | 1018.9 hPa | 0 mm | - | 2 W/m² | - |
| 1787832786 | 25° C | 99% | 1018.8 hPa | 0 mm | - | 1 W/m² | - |
| 1787832482 | 25° C | 98% | 1018.5 hPa | 1.27 mm | - | 1 W/m² | - |
* Rain latest hour (hover to see other rain measurements)
** Current wind speed in m/s (hover to see current wind gust speed)